User: anonymous   Login
Location: LDNL
(36.4545°S, 141.6685°E)
Time: 16:06:52
(UTC+10:00)
Language:

Oscar 11 - Orbit

View from above orbital plane
View from above orbital plane
View from above satellite
View from above satellite

Ground track
Ground track

The orbit data is extracted from the following two-line orbital elements,

1 14781U 84021B   22148.89312836  .00000852  00000-0  10922-3 0  9995
2 14781  97.6165 137.2203 0009273  35.3214 324.8613 14.83649512 58142
Epoch (UTC): 28 May 2022 21:26:06
Eccentricity: 0.0009273
inclination: 97.6165°
perigee height: 611 km
apogee height: 624 km
right ascension of ascending node: 137.2203°
argument of perigee: 35.3214°
revolutions per day: 14.83649512
mean anomaly at epoch: 324.8613°
orbit number at epoch: 5814

The dashed part of the orbit path shows where the satellite is in the earth's shadow,  

DLR